Flag for Germany Weather past 2 weeks in Fehmarn (Puttgarden), Schleswig-Holstein, Germany

Now
40 °F

Overcast.


Feels Like: 31 °F
Forecast: 38 / 41 °F
Wind: 18 mph from West

Location: Westermarkelsdorf

Current Time: Mar 2, 2015 at 6:19:05 PM

Latest Report: Mar 2, 2015 at 5:00 PM


Visibility: 13 mi

Pressure: 29.44 "Hg

Humidity: 79%

Dew point: 35 °F

Location of Fehmarn (Puttgarden)Location

Historic Weather in Fehmarn (Puttgarden) — Graph

°F

Fehmarn (Puttgarden) temperature yesterday

Maximum temperature yesterday: 45 °F (at 2:00 PM)
Minimum temperature yesterday: 36 °F (at 1:00 AM)
Average temperature yesterday: 39 °F

Past Weeks' High & Low Weather Summary

 TemperatureHumidityPressure
High45 °F (Feb 26, 2:00 PM)100% (Feb 18, 12:00 AM)30.63 "Hg (Feb 18, 12:00 AM)
Low29 °F (Feb 17, 7:00 AM)62% (Feb 19, 3:00 PM)29.21 "Hg (Feb 21, 12:00 PM)
Average38 °F86%29.86 "Hg
* Reported Feb 15 5:00 PM — Mar 2 5:00 PM, Fehmarn (Puttgarden), Weather by CustomWeather, © 2015

Note: Actual official high and low records may vary slightly from our data, if they occured in-between our weather recording intervals... More about our weather records

Advertising

Fehmarn (Puttgarden) weather history for previous 24 hours

 ConditionsComfort  
Time TempWeatherWind HumidityBarometerVisibility
5:00 PM
Mon, Mar 2
40 °FOvercast.18 mph79%29.44 "Hg12 mi
4:00 PM41 °FOvercast.18 mph78%29.41 "Hg9 mi
3:00 PM40 °FOvercast.20 mph80%29.38 "Hg15 mi
2:00 PM39 °FOvercast.18 mph88%29.35 "Hg7 mi
1:00 PM39 °FOvercast.17 mph91%29.32 "Hg6 mi
12:00 PM40 °FOvercast.13 mph87%29.32 "Hg9 mi
11:00 AM39 °FOvercast.12 mph92%29.29 "Hg15 mi
10:00 AM39 °FOvercast.16 mph91%29.26 "Hg13 mi
9:00 AM38 °FLight rain. Overcast.10 mph97%29.23 "Hg6 mi
8:00 AM39 °FOvercast.7 mph92%29.21 "Hg11 mi
7:00 AM39 °FOvercast.6 mph95%29.21 "Hg9 mi
6:00 AM39 °FLight rain. Overcast.8 mph94%29.23 "Hg8 mi
5:00 AM39 °FLight rain. Overcast.8 mph94%29.26 "Hg6 mi
3:00 AM38 °FOvercast.7 mph88%29.32 "Hg19 mi
2:00 AM38 °FOvercast.7 mph86%29.35 "Hg18 mi
1:00 AM39 °FOvercast.7 mph86%29.38 "Hg17 mi
12:00 AM38 °FOvercast.6 mph88%29.41 "Hg17 mi
11:00 PM
Sun, Mar 1
39 °FPassing clouds.6 mph84%29.41 "Hg17 mi
9:00 PM40 °FOvercast.6 mph83%29.44 "Hg14 mi
8:00 PM41 °FOvercast.7 mph81%29.44 "Hg14 mi
7:00 PM41 °FOvercast.8 mph82%29.44 "Hg14 mi
6:00 PM42 °FOvercast.8 mph81%29.41 "Hg16 mi
Weather by CustomWeather, © 2015

See weather overviewHow to use our weather pages